Terminal Aerodrome Forecast
Issued by NWS

Home | Current Version | Previous Version | Text Only | Print | Product List | Glossary Off
Versions: 1 2 3 4 5 6 7 8 9 10 11 12 13 14

000
FTUS43 KMPX 080500
TAFAXN
TAF
KAXN 080521Z 0806/0906 30010KT P6SM SKC
     FM081500 32015G25KT P6SM SCT040
     FM090100 33007KT P6SM SKC=

USA.gov is the U.S. government's official web portal to all federal, state and local government web resources and services.